Location: Jedlicze
(49.7144°N, 21.6472°E)
Time: 04:56:21
(UTC+01:00)

ISS - Visible Passes

Search period start: 24 November 2017 00:00
Search period end: 04 December 2017 00:00
Orbit: 402 x 407 km, 51.6° (Epoch: 24 November)

Date Brightness Start Highest point End Pass type
(mag) Time Alt. Az. Time Alt. Az. Time Alt. Az.
27 Nov -1.2 17:34:42 10° SSE 17:35:10 11° SSE 17:35:10 11° SSE visible
28 Nov -1.3 18:16:54 10° SW 18:17:50 17° SSW 18:17:50 17° SSW visible
29 Nov -2.4 17:25:01 10° SSW 17:27:45 24° SE 17:27:46 24° SE visible
30 Nov -1.7 16:33:33 10° S 16:35:34 15° SE 16:37:35 10° E visible
30 Nov -2.2 18:08:18 10° WSW 18:10:15 32° SW 18:10:15 32° SW visible
01 Dec -3.2 17:16:06 10° SW 17:19:15 44° SSE 17:20:01 36° ESE visible
01 Dec -0.3 18:52:23 10° W 18:52:40 12° W 18:52:40 12° W visible
02 Dec -2.4 16:24:05 10° SSW 16:26:57 28° SE 16:29:44 11° E visible
02 Dec -2.8 17:59:55 10° WSW 18:02:23 47° W 18:02:23 47° W visible
03 Dec -3.8 17:07:31 10° WSW 17:10:47 75° SSE 17:12:04 34° E visible
03 Dec -0.6 18:44:07 10° W 18:44:42 14° W 18:44:42 14° W visible
